[[{"header":{"parameterUnit":"m.s-1","parameterCategory":2,"la1":30.2991,"la2":30.254,"lo1":-89.0895,"lo2":-89.0444,"dy":0.0017,"dx":0.0017,"nx":28,"ny":28,"refTime":"2024-02-02T09:00:00:Z","depth":"0","parameterNumber":2,"parameterNumberName":"U-component_of_CURRENTS"},"data":[0,0,0,0,0,0,0,0,0,0,0,0,0,0,0,0,0,0,0,0,0,0,0,0,0,0,0,0,0,0,0,0,0,0,0,0,0,0,0,0,0,0,0,0,0,0,0,0,0,0,0,0,0,0,0,0,0,0,-0.3114,-0.3113,0,-0.2964,-0.2961,-0.2959,-0.2922,-0.2924,-0.2926,-0.2927,-0.276,-0.2754,-0.2748,0,0,0,0,0,0,0,0,0,0,0,0,0,-0.3196,-0.3195,-0.3115,-0.3113,-0.3112,-0.2964,-0.2961,-0.2958,-0.2922,-0.2924,-0.2926,-0.2928,-0.2762,-0.2755,-0.2748,0,0,0,0,0,0,0,0,0,0,0,0,0,-0.3107,-0.3195,-0.3115,-0.3082,-0.3078,-0.2965,-0.2961,-0.2958,-0.2922,-0.2924,-0.2927,-0.2929,-0.2765,-0.2756,-0.2747,-0.2639,0,0,-0.2719,-0.2715,0,0,0,0,0,0,0,0,-0.3113,-0.3103,-0.3088,-0.3084,-0.308,-0.2972,-0.2929,-0.2853,-0.2921,-0.2973,-0.2927,-0.293,-0.2833,-0.2818,-0.2773,-0.2631,-0.2624,-0.2718,-0.2713,-0.2709,-0.2706,0,0,0,0,0,0,0,-0.3119,-0.3109,-0.3047,-0.3087,-0.3082,-0.3016,-0.3007,-0.2913,-0.2883,-0.2968,-0.2967,-0.2962,-0.283,-0.2782,-0.2769,-0.2621,-0.2718,-0.271,-0.2705,-0.2701,-0.2379,-0.2376,0,0,0,0,0,0,-0.316,-0.3115,-0.3052,-0.3043,-0.3112,-0.3013,-0.3003,-0.2997,-0.2885,-0.2873,-0.296,-0.2961,-0.2796,-0.2779,-0.2763,-0.2692,-0.2709,-0.27,-0.2695,-0.2382,-0.2379,-0.2375,0,0,0,0,0,0,-0.3162,-0.3155,-0.3058,-0.3082,-0.3066,-0.3011,-0.3004,-0.2993,-0.2942,-0.288,-0.2867,-0.2923,-0.2797,-0.2776,-0.2674,-0.2684,-0.2696,-0.2688,-0.2386,-0.2381,-0.2377,-0.2511,0,0,0,0,0,0,-0.3165,-0.3157,-0.314,-0.3085,-0.3067,-0.2985,-0.3002,-0.2988,-0.294,-0.2939,-0.2843,-0.283,-0.2798,-0.2688,-0.2665,-0.2672,-0.2681,-0.239,-0.2384,-0.2379,-0.251,-0.2511,-0.2512,0,0,0,0,0,-0.3168,-0.3131,-0.314,-0.3131,-0.3055,-0.2984,-0.2966,-0.2931,-0.2936,-0.2896,-0.284,-0.2833,-0.2635,-0.2677,-0.2652,-0.2656,-0.2393,-0.2386,-0.2379,-0.251,-0.2511,-0.2512,0,0,0,0,0,0,-0.3147,-0.3123,-0.3132,-0.3089,-0.3046,-0.2982,-0.2938,-0.2917,-0.2836,-0.2838,-0.2785,-0.2766,-0.2684,-0.2619,-0.2667,-0.2535,-0.2514,-0.2502,-0.2622,-0.2622,-0.2623,-0.2603,-0.2673,0,0,0,0,0,-0.3142,-0.3111,-0.3085,-0.3045,-0.3033,-0.2984,-0.2944,-0.2925,-0.2863,-0.283,-0.2774,-0.2698,-0.2627,-0.2589,-0.2504,-0.2421,-0.234,-0.24,-0.2401,-0.2403,-0.2361,-0.2266,-0.2257,-0.2352,-0.2353,-0.2353,0,0,-0.3119,-0.3105,-0.3084,-0.3039,-0.3006,-0.2976,-0.2963,-0.2907,-0.2873,-0.282,-0.2744,-0.2691,-0.2597,-0.2526,-0.2483,-0.2483,-0.233,-0.2394,-0.2399,-0.2353,-0.2258,-0.225,-0.2242,-0.2348,-0.2349,-0.2349,0,0,-0.3081,-0.3056,-0.3037,-0.3006,-0.2972,-0.2941,-0.293,-0.2872,-0.2838,-0.2757,-0.2725,-0.2667,-0.2544,-0.25,-0.2458,-0.2389,-0.2333,-0.237,-0.2373,-0.2286,-0.2278,-0.2271,-0.2168,-0.215,-0.2381,-0.2381,-0.2382,0,-0.3053,-0.3034,-0.3011,-0.2996,-0.2966,-0.2936,-0.2908,-0.2858,-0.2773,-0.2738,-0.2746,-0.2577,-0.2531,-0.2441,-0.244,-0.24,-0.2327,-0.2406,-0.2295,-0.2285,-0.2275,-0.2171,-0.215,-0.2387,-0.2386,-0.2386,-0.2385,0,-0.3028,-0.3,-0.2979,-0.2963,-0.2927,-0.2878,-0.2849,-0.2809,-0.278,-0.2735,-0.2637,-0.2564,-0.2465,-0.2465,-0.2439,-0.2348,-0.2311,-0.2316,-0.2318,-0.2276,-0.2166,-0.2142,-0.2395,-0.2393,-0.2391,-0.239,0,0,-0.2983,-0.2963,-0.2955,-0.2941,-0.29,-0.2863,-0.2828,-0.2765,-0.2718,-0.2663,-0.259,-0.2508,-0.2472,-0.2413,-0.2381,-0.2324,-0.2233,-0.23,-0.2293,-0.224,-0.2015,-0.1987,-0.1957,-0.2237,-0.2233,-0.223,-0.1973,0,-0.2959,-0.2934,-0.2924,-0.2873,-0.2853,-0.2824,-0.2777,-0.2727,-0.2671,-0.2593,-0.2538,-0.2443,-0.2449,-0.2411,-0.2354,-0.2254,-0.2169,-0.2298,-0.202,-0.201,-0.2029,-0.1928,-0.1909,-0.1678,-0.1949,-0.1945,-0.1942,0,-0.2948,-0.2925,-0.289,-0.283,-0.2815,-0.278,-0.2703,-0.2647,-0.256,-0.2522,-0.2448,-0.2389,-0.2291,-0.2307,-0.2102,-0.2187,-0.2083,-0.2017,-0.2006,-0.1904,-0.1936,-0.1752,-0.1622,-0.1609,-0.1904,-0.1907,-0.191,0,-0.2945,-0.2894,-0.286,-0.284,-0.278,-0.2751,-0.27,-0.2624,-0.2554,-0.2461,-0.2412,-0.2293,-0.2203,-0.2088,-0.1962,-0.202,-0.1727,-0.1793,-0.165,-0.1647,-0.1527,-0.1521,-0.138,-0.16,-0.1601,-0.1602,-0.1602,0,-0.2912,-0.2874,-0.2852,-0.2827,-0.2736,-0.2725,-0.2618,-0.2564,-0.2483,-0.2339,-0.235,-0.2227,-0.2141,-0.1986,-0.1899,-0.1679,-0.1661,-0.1591,-0.1562,-0.1572,-0.1572,-0.1472,-0.151,-0.1592,-0.1594,-0.1596,-0.1598,0,-0.2874,-0.288,-0.2812,-0.2757,-0.2731,-0.2652,-0.255,-0.2451,-0.2428,-0.2249,-0.2219,-0.2134,-0.1941,-0.184,-0.1618,-0.1562,-0.1361,-0.1312,-0.1326,-0.1304,-0.122,-0.1266,-0.1039,-0.1002,-0.1121,-0.1119,-0.1117,0,-0.2844,-0.2829,-0.2743,-0.2663,-0.2613,-0.2523,-0.2426,-0.2398,-0.2294,-0.2148,-0.2036,-0.1883,-0.17,-0.144,-0.1345,-0.1164,-0.1186,-0.1034,-0.1148,-0.1157,-0.1185,-0.124,-0.1232,-0.1034,-0.1031,-0.1029,-0.1027,0,-0.2747,-0.2725,-0.2638,-0.2482,-0.2372,-0.2247,-0.2129,-0.2067,-0.1967,-0.1855,-0.1628,-0.1507,-0.1354,-0.1197,-0.1066,-0.0975,-0.1053,-0.0985,-0.0973,-0.1061,-0.1124,-0.1096,-0.1266,-0.1008,-0.101,-0.1012,-0.1013,-0.1013,-0.2617,-0.2506,-0.2383,-0.2199,-0.2075,-0.1881,-0.1729,-0.1635,-0.1442,-0.1175,-0.1199,-0.0943,-0.1047,-0.0906,-0.0834,-0.0795,-0.0865,-0.0789,-0.0823,-0.0862,-0.0885,-0.101,-0.0757,-0.0757,-0.0757,-0.0758,-0.0758,0,-0.2341,-0.2233,-0.2092,-0.1833,-0.1604,-0.1627,-0.1432,-0.1261,-0.0964,-0.0794,-0.058,-0.048,-0.0505,-0.061,-0.07,-0.066,-0.0672,-0.064,-0.0717,-0.0701,-0.0762,-0.0821,-0.0597,-0.0597,-0.0597,-0.0597,-0.0597,-0.0597,-0.2168,-0.1919,-0.1833,-0.1389,-0.1239,-0.091,-0.076,-0.058,-0.0441,-0.0115,0.0038,0.0051,-0.0242,-0.0539,-0.0634,-0.0609,-0.0606,-0.0596,-0.0588,-0.067,-0.0688,-0.0705,-0.0767,-0.0536,-0.0536,-0.0518,-0.0518,-0.0518]},{"header":{"parameterUnit":"m.s-1","parameterCategory":2,"la1":30.2991,"la2":30.254,"lo1":-89.0895,"lo2":-89.0444,"dy":0.0017,"dx":0.0017,"nx":28,"ny":28,"refTime":"2024-02-02T09:00:00:Z","depth":"0","parameterNumber":3,"parameterNumberName":"V-component_of_CURRENTS"},"data":[0,0,0,0,0,0,0,0,0,0,0,0,0,0,0,0,0,0,0,0,0,0,0,0,0,0,0,0,0,0,0,0,0,0,0,0,0,0,0,0,0,0,0,0,0,0,0,0,0,0,0,0,0,0,0,0,0,0,0.0922,0.0924,0,0.1058,0.1059,0.106,0.1055,0.1053,0.1052,0.105,0.1193,0.1198,0.1203,0,0,0,0,0,0,0,0,0,0,0,0,0,0.0503,0.0511,0.0922,0.0924,0.0926,0.1058,0.1059,0.106,0.1055,0.1053,0.1051,0.105,0.1191,0.1197,0.1203,0,0,0,0,0,0,0,0,0,0,0,0,0,0.0663,0.0514,0.0921,0.0942,0.0946,0.1057,0.1059,0.1061,0.1056,0.1053,0.1051,0.1049,0.1189,0.1196,0.1204,0.1298,0,0,0.1228,0.1231,0,0,0,0,0,0,0,0,0.0654,0.0678,0.0937,0.0941,0.0945,0.1041,0.0963,0.1142,0.1056,0.1009,0.105,0.1048,0.1147,0.1158,0.1182,0.1304,0.131,0.1229,0.1233,0.1237,0.1239,0,0,0,0,0,0,0,0.0643,0.0671,0.0971,0.094,0.0945,0.0892,0.0913,0.0996,0.1086,0.1013,0.1014,0.1037,0.1148,0.1175,0.1186,0.1313,0.1228,0.1235,0.124,0.1243,0.1466,0.1467,0,0,0,0,0,0,0.0647,0.0663,0.0967,0.0976,0.0796,0.0902,0.0926,0.1009,0.1085,0.1096,0.1039,0.1036,0.1163,0.1177,0.1191,0.1251,0.1237,0.1244,0.1248,0.1464,0.1466,0.1467,0,0,0,0,0,0,0.0639,0.0676,0.0962,0.082,0.0853,0.0914,0.1006,0.1013,0.1035,0.1105,0.1114,0.1053,0.1161,0.118,0.1256,0.1259,0.1247,0.1254,0.1463,0.1465,0.1466,0.1408,0,0,0,0,0,0,0.0627,0.0673,0.0736,0.0824,0.0862,0.1029,0.1009,0.1017,0.1055,0.1053,0.1122,0.1132,0.1161,0.1244,0.1264,0.1269,0.1261,0.1461,0.1464,0.1466,0.1409,0.1408,0.1407,0,0,0,0,0,0.0613,0.0704,0.074,0.0776,0.095,0.1031,0.1045,0.1073,0.1058,0.108,0.1116,0.113,0.1271,0.1252,0.1275,0.1282,0.146,0.1463,0.1466,0.1409,0.1408,0.1407,0,0,0,0,0,0,0.0579,0.0716,0.0756,0.0895,0.0959,0.1031,0.1055,0.1079,0.1127,0.1113,0.1163,0.1179,0.1241,0.1285,0.1262,0.1354,0.1363,0.1371,0.1312,0.1312,0.1312,0.1238,0.1267,0,0,0,0,0,0.0603,0.0688,0.0805,0.0908,0.0938,0.0997,0.1033,0.1054,0.1108,0.1124,0.1175,0.1224,0.1277,0.1309,0.1368,0.1438,0.1445,0.1454,0.1453,0.1452,0.1409,0.1423,0.1417,0.1476,0.1476,0.1476,0,0,0.0617,0.0702,0.0754,0.0901,0.0943,0.0968,0.1011,0.1062,0.1068,0.1138,0.1166,0.1234,0.1297,0.1354,0.1386,0.1387,0.1452,0.1456,0.1454,0.1411,0.1425,0.1418,0.1413,0.1478,0.1478,0.1477,0,0,0.0622,0.0761,0.0794,0.0848,0.0921,0.0959,0.0973,0.1052,0.1072,0.1138,0.1166,0.1233,0.1334,0.1364,0.1393,0.1435,0.145,0.1462,0.1397,0.1412,0.1406,0.14,0.1439,0.1437,0.1458,0.1458,0.1458,0,0.0619,0.0699,0.0813,0.0835,0.0854,0.0944,0.0939,0.0992,0.1082,0.1089,0.1134,0.1244,0.1327,0.1348,0.1365,0.1428,0.1438,0.1391,0.1405,0.14,0.1395,0.1435,0.1434,0.1455,0.1456,0.1456,0.1456,0,0.0615,0.0675,0.0692,0.0745,0.0793,0.0812,0.0889,0.0927,0.0971,0.1016,0.1073,0.119,0.1235,0.1297,0.135,0.1356,0.1378,0.1402,0.1392,0.1384,0.143,0.1429,0.1452,0.1453,0.1453,0.1454,0,0,0.0571,0.0665,0.0658,0.0649,0.0736,0.0759,0.0784,0.082,0.0806,0.0921,0.0907,0.1044,0.1099,0.1134,0.122,0.1255,0.1284,0.1306,0.1308,0.1317,0.1318,0.1301,0.1299,0.1297,0.1296,0.1295,0.1377,0,0.0497,0.0493,0.057,0.0539,0.053,0.062,0.063,0.0683,0.0748,0.0775,0.0885,0.0933,0.1037,0.1073,0.1117,0.125,0.1272,0.1259,0.1347,0.135,0.1311,0.1293,0.1258,0.1322,0.1376,0.1376,0.1376,0,0.0416,0.0423,0.0385,0.0405,0.0409,0.0415,0.042,0.0453,0.0529,0.0581,0.0639,0.0737,0.0828,0.0917,0.1069,0.1051,0.1155,0.1256,0.1262,0.1246,0.1327,0.1336,0.1319,0.1387,0.1375,0.1375,0.1375,0,0.0251,0.0273,0.0227,0.024,0.0296,0.0284,0.031,0.0377,0.0419,0.0459,0.0517,0.0584,0.0692,0.0782,0.1024,0.1033,0.1188,0.1233,0.1301,0.1304,0.1287,0.1289,0.1311,0.128,0.128,0.128,0.1279,0,0.0122,0.0072,0.0147,0.0118,0.0064,0.0151,0.0121,0.0159,0.025,0.0333,0.041,0.0516,0.0667,0.0808,0.0953,0.113,0.113,0.126,0.1303,0.1274,0.1273,0.1342,0.138,0.1283,0.1282,0.1282,0.1281,0,-0.0055,-0.0008,-0.0056,-0.0018,-0.0009,-0.0044,0.0047,0.0084,0.0148,0.0266,0.0296,0.0481,0.0651,0.0792,0.0988,0.1087,0.1262,0.1279,0.1244,0.1278,0.1363,0.1399,0.1433,0.151,0.1335,0.1335,0.1335,0,-0.0137,-0.0179,-0.0162,-0.014,-0.0118,-0.0124,-0.0068,0.0009,0.0122,0.0303,0.0414,0.0551,0.0722,0.0941,0.1047,0.1182,0.1289,0.1264,0.1258,0.1328,0.1402,0.1429,0.1495,0.1252,0.1251,0.125,0.125,0,-0.0285,-0.0276,-0.0291,-0.024,-0.0189,-0.0133,-0.0025,0.0049,0.0227,0.0348,0.0617,0.0728,0.0875,0.1,0.1076,0.1171,0.128,0.1252,0.1329,0.1313,0.1337,0.1446,0.1267,0.1243,0.1244,0.1244,0.1245,0.1245,-0.0371,-0.0395,-0.0353,-0.029,-0.0214,-0.0048,0.0043,0.0209,0.0381,0.0669,0.0793,0.101,0.1041,0.1122,0.1192,0.1225,0.1261,0.1292,0.133,0.1353,0.1398,0.1198,0.1211,0.1211,0.1212,0.1212,0.1212,0,-0.0398,-0.0378,-0.0352,-0.0228,-0.007,-0.004,0.0182,0.0343,0.0606,0.0806,0.1049,0.1262,0.126,0.1263,0.1236,0.1312,0.1363,0.1369,0.1406,0.1477,0.13,0.1266,0.1283,0.1283,0.1283,0.1283,0.1283,0.1282,-0.0396,-0.0362,-0.0313,-0.0059,0.006,0.0316,0.0478,0.0655,0.0841,0.1163,0.1361,0.1522,0.149,0.1408,0.1409,0.1428,0.157,0.1506,0.164,0.151,0.1506,0.1503,0.1479,0.1541,0.1541,0.1805,0.1807,0.1809]}],[{"header":{"parameterUnit":"m.s-1","parameterCategory":2,"la1":30.2991,"la2":30.254,"lo1":-89.0895,"lo2":-89.0444,"dy":0.0017,"dx":0.0017,"nx":28,"ny":28,"refTime":"2024-02-02T09:00:00:Z","depth":"2","parameterNumber":2,"parameterNumberName":"U-component_of_CURRENTS"},"data":[0,0,0,0,0,0,0,0,0,0,0,0,0,0,0,0,0,0,0,0,0,0,0,0,0,0,0,0,0,0,0,0,0,0,0,0,0,0,0,0,0,0,0,0,0,0,0,0,0,0,0,0,0,0,0,0,0,0,-0.2147,-0.2146,0,-0.2146,-0.2147,-0.2149,-0.2253,-0.2254,-0.2255,-0.2256,-0.2352,-0.2354,-0.2355,0,0,0,0,0,0,0,0,0,0,0,0,0,-0.2084,-0.2087,-0.2148,-0.2146,-0.2144,-0.2145,-0.2147,-0.2149,-0.2253,-0.2254,-0.2255,-0.2257,-0.2352,-0.2354,-0.2355,0,0,0,0,0,0,0,0,0,0,0,0,0,-0.2118,-0.2088,-0.2148,-0.2182,-0.2184,-0.2145,-0.2147,-0.2149,-0.2252,-0.2254,-0.2256,-0.2257,-0.2351,-0.2353,-0.2356,-0.2338,0,0,-0.2363,-0.2364,0,0,0,0,0,0,0,0,-0.2116,-0.2123,-0.2179,-0.218,-0.2181,-0.2185,-0.2159,-0.2211,-0.2252,-0.2246,-0.2256,-0.2258,-0.2292,-0.2299,-0.232,-0.2342,-0.2347,-0.2363,-0.2364,-0.2365,-0.2366,0,0,0,0,0,0,0,-0.2114,-0.2122,-0.2166,-0.2177,-0.2178,-0.2142,-0.2153,-0.217,-0.2276,-0.2247,-0.225,-0.222,-0.2296,-0.2318,-0.2323,-0.2348,-0.2363,-0.2365,-0.2366,-0.2367,-0.2543,-0.2546,0,0,0,0,0,0,-0.2084,-0.2121,-0.2165,-0.2164,-0.2131,-0.2142,-0.2154,-0.2197,-0.2274,-0.2281,-0.2218,-0.2224,-0.2313,-0.2321,-0.2327,-0.2416,-0.2365,-0.2368,-0.2369,-0.254,-0.2544,-0.2547,0,0,0,0,0,0,-0.2084,-0.2091,-0.2165,-0.2122,-0.2127,-0.2141,-0.2188,-0.2196,-0.2242,-0.2248,-0.2261,-0.2257,-0.2315,-0.2324,-0.2413,-0.2417,-0.2369,-0.2371,-0.2536,-0.2541,-0.2545,-0.2527,0,0,0,0,0,0,-0.2084,-0.2093,-0.2111,-0.2123,-0.2128,-0.2205,-0.2185,-0.2194,-0.221,-0.222,-0.2284,-0.2293,-0.2317,-0.241,-0.2415,-0.2419,-0.2373,-0.2532,-0.2538,-0.2544,-0.2523,-0.253,-0.2536,0,0,0,0,0,-0.2083,-0.2101,-0.2114,-0.2116,-0.2157,-0.2206,-0.2211,-0.2232,-0.221,-0.2273,-0.2315,-0.2293,-0.2452,-0.2415,-0.242,-0.2424,-0.2529,-0.2536,-0.2543,-0.252,-0.2529,-0.2536,0,0,0,0,0,0,-0.2073,-0.2111,-0.2127,-0.2155,-0.2202,-0.2218,-0.2224,-0.2237,-0.2313,-0.231,-0.2333,-0.235,-0.2429,-0.2446,-0.2404,-0.2504,-0.2486,-0.2494,-0.2466,-0.2475,-0.2481,-0.2422,-0.2375,0,0,0,0,0,-0.2075,-0.2109,-0.215,-0.2171,-0.2191,-0.2211,-0.2219,-0.2249,-0.2294,-0.2328,-0.2369,-0.2412,-0.2456,-0.2484,-0.2539,-0.2581,-0.2536,-0.2595,-0.2602,-0.2607,-0.257,-0.2513,-0.2507,-0.2571,-0.2571,-0.2571,0,0,-0.206,-0.2083,-0.2097,-0.2169,-0.219,-0.2242,-0.223,-0.2262,-0.2306,-0.2321,-0.2405,-0.244,-0.2481,-0.255,-0.2583,-0.2564,-0.2578,-0.2616,-0.2619,-0.2579,-0.2519,-0.2512,-0.2505,-0.2576,-0.2575,-0.2574,0,0,-0.204,-0.2092,-0.2116,-0.2166,-0.2203,-0.2249,-0.2266,-0.2322,-0.2362,-0.2443,-0.2455,-0.2486,-0.2585,-0.2589,-0.2603,-0.2673,-0.2621,-0.2718,-0.2683,-0.2629,-0.262,-0.2612,-0.2572,-0.256,-0.271,-0.271,-0.271,0,-0.2017,-0.2067,-0.2128,-0.2167,-0.2191,-0.226,-0.2305,-0.236,-0.2442,-0.2464,-0.2487,-0.2564,-0.2584,-0.2603,-0.2633,-0.2672,-0.2652,-0.2636,-0.2626,-0.2617,-0.2609,-0.257,-0.2557,-0.271,-0.271,-0.271,-0.271,0,-0.2027,-0.2066,-0.2081,-0.2177,-0.2241,-0.2284,-0.2371,-0.2434,-0.2478,-0.2526,-0.258,-0.2602,-0.2633,-0.2651,-0.2656,-0.2621,-0.2631,-0.2639,-0.2579,-0.2599,-0.2561,-0.2547,-0.271,-0.271,-0.271,-0.271,0,0,-0.197,-0.207,-0.2076,-0.2114,-0.2246,-0.23,-0.2383,-0.2481,-0.2504,-0.2588,-0.2601,-0.2641,-0.2632,-0.2644,-0.2638,-0.2576,-0.2494,-0.2578,-0.2575,-0.249,-0.2389,-0.2275,-0.2249,-0.2502,-0.25,-0.2498,-0.2392,0,-0.1956,-0.2016,-0.209,-0.2171,-0.2214,-0.2315,-0.2393,-0.2489,-0.2562,-0.2613,-0.2611,-0.2648,-0.2642,-0.2627,-0.257,-0.2521,-0.2456,-0.2522,-0.2424,-0.242,-0.2273,-0.2227,-0.2085,-0.1968,-0.2378,-0.2376,-0.2374,0,-0.1925,-0.1982,-0.2059,-0.2156,-0.2188,-0.2265,-0.2382,-0.2466,-0.256,-0.2596,-0.2615,-0.2639,-0.2579,-0.2563,-0.244,-0.2492,-0.2427,-0.2377,-0.2372,-0.2245,-0.2277,-0.2016,-0.1927,-0.2351,-0.2353,-0.2355,-0.2356,0,-0.1845,-0.1938,-0.2006,-0.2048,-0.2203,-0.2244,-0.2334,-0.2454,-0.2499,-0.2577,-0.2575,-0.2577,-0.2525,-0.2459,-0.236,-0.2402,-0.2209,-0.2262,-0.2099,-0.2094,-0.1935,-0.1917,-0.2142,-0.2142,-0.2143,-0.2143,-0.2143,0,-0.1791,-0.183,-0.1968,-0.2014,-0.2071,-0.2208,-0.2276,-0.2347,-0.2435,-0.2452,-0.2548,-0.2479,-0.2485,-0.2397,-0.2339,-0.215,-0.219,-0.2048,-0.2032,-0.1934,-0.1918,-0.2226,-0.2237,-0.2139,-0.214,-0.2141,-0.2141,0,-0.1697,-0.1786,-0.1847,-0.1997,-0.2037,-0.2086,-0.2211,-0.2233,-0.2347,-0.2343,-0.2352,-0.2382,-0.2254,-0.2239,-0.2109,-0.2073,-0.1945,-0.1872,-0.1761,-0.1731,-0.1886,-0.1899,-0.1691,-0.1686,-0.1681,-0.1677,-0.1674,0,-0.1651,-0.1689,-0.1819,-0.1829,-0.1896,-0.1984,-0.2016,-0.216,-0.2161,-0.2229,-0.2168,-0.2115,-0.2009,-0.1833,-0.1744,-0.163,-0.1742,-0.1461,-0.1489,-0.182,-0.1828,-0.1848,-0.1867,-0.1303,-0.1297,-0.1292,-0.1288,0,-0.1567,-0.1627,-0.1681,-0.1713,-0.1737,-0.1776,-0.1821,-0.1813,-0.1946,-0.1932,-0.186,-0.1809,-0.1661,-0.1469,-0.1368,-0.1295,-0.1482,-0.1353,-0.1683,-0.1437,-0.1443,-0.1456,-0.1488,-0.1244,-0.1248,-0.1251,-0.1254,-0.1255,-0.149,-0.1472,-0.1538,-0.155,-0.1564,-0.1545,-0.1525,-0.1548,-0.1535,-0.1504,-0.153,-0.1421,-0.1391,-0.113,-0.1027,-0.0983,-0.1097,-0.1093,-0.1113,-0.1137,-0.1108,-0.1105,-0.0838,-0.084,-0.0842,-0.0844,-0.0845,0,-0.1353,-0.1351,-0.136,-0.1354,-0.1307,-0.1385,-0.1366,-0.1323,-0.1235,-0.1213,-0.1157,-0.1001,-0.0851,-0.0837,-0.0677,-0.0646,-0.0698,-0.0639,-0.0718,-0.0759,-0.0796,-0.0757,-0.039,-0.0389,-0.0388,-0.0387,0,0,-0.1275,-0.1222,-0.1224,-0.1107,-0.1104,-0.1015,-0.0982,-0.0929,-0.0896,-0.0802,-0.0754,-0.0796,-0.0797,-0.0601,-0.0538,-0.0436,-0.0606,-0.0409,-0.0767,-0.0899,-0.0936,-0.1036,-0.1017,0,0,0,0,0]},{"header":{"parameterUnit":"m.s-1","parameterCategory":2,"la1":30.2991,"la2":30.254,"lo1":-89.0895,"lo2":-89.0444,"dy":0.0017,"dx":0.0017,"nx":28,"ny":28,"refTime":"2024-02-02T09:00:00:Z","depth":"2","parameterNumber":3,"parameterNumberName":"V-component_of_CURRENTS"},"data":[0,0,0,0,0,0,0,0,0,0,0,0,0,0,0,0,0,0,0,0,0,0,0,0,0,0,0,0,0,0,0,0,0,0,0,0,0,0,0,0,0,0,0,0,0,0,0,0,0,0,0,0,0,0,0,0,0,0,-0.0727,-0.0727,0,-0.0693,-0.0692,-0.0691,-0.0591,-0.059,-0.0588,-0.0587,-0.0426,-0.0423,-0.042,0,0,0,0,0,0,0,0,0,0,0,0,0,-0.0679,-0.068,-0.0727,-0.0727,-0.0727,-0.0693,-0.0692,-0.069,-0.0591,-0.059,-0.0588,-0.0586,-0.0427,-0.0423,-0.042,0,0,0,0,0,0,0,0,0,0,0,0,0,-0.067,-0.068,-0.0727,-0.068,-0.0676,-0.0693,-0.0692,-0.069,-0.0592,-0.059,-0.0587,-0.0586,-0.0428,-0.0424,-0.0419,-0.0433,0,0,-0.0405,-0.0403,0,0,0,0,0,0,0,0,-0.067,-0.067,-0.0687,-0.0684,-0.0679,-0.0652,-0.0616,-0.0601,-0.0592,-0.0615,-0.0587,-0.0585,-0.0497,-0.0486,-0.0474,-0.0425,-0.0418,-0.0405,-0.0402,-0.04,-0.0399,0,0,0,0,0,0,0,-0.0671,-0.0671,-0.0704,-0.0688,-0.0683,-0.0653,-0.0648,-0.0612,-0.0559,-0.0612,-0.0607,-0.0618,-0.0492,-0.0479,-0.0469,-0.0416,-0.0405,-0.0401,-0.0398,-0.0396,-0.0149,-0.0145,0,0,0,0,0,0,-0.0697,-0.0672,-0.0706,-0.0704,-0.0679,-0.0656,-0.0651,-0.0655,-0.0561,-0.0549,-0.062,-0.0614,-0.0487,-0.0475,-0.0463,-0.0301,-0.04,-0.0396,-0.0393,-0.0152,-0.0148,-0.0144,0,0,0,0,0,0,-0.0696,-0.07,-0.0707,-0.0694,-0.0694,-0.066,-0.0666,-0.0656,-0.0634,-0.057,-0.0553,-0.0608,-0.0485,-0.0469,-0.0413,-0.03,-0.0394,-0.039,-0.0157,-0.0151,-0.0146,-0.0087,0,0,0,0,0,0,-0.0694,-0.0699,-0.0716,-0.0696,-0.0696,-0.0699,-0.0668,-0.0657,-0.0649,-0.064,-0.0555,-0.0538,-0.0482,-0.042,-0.0408,-0.0296,-0.0386,-0.0162,-0.0154,-0.0147,-0.0093,-0.0079,-0.0067,0,0,0,0,0,-0.0693,-0.072,-0.0716,-0.0721,-0.0718,-0.07,-0.0695,-0.0658,-0.0651,-0.0632,-0.0578,-0.054,-0.0362,-0.0417,-0.0403,-0.0285,-0.0165,-0.0156,-0.0148,-0.0099,-0.0082,-0.0068,0,0,0,0,0,0,-0.0711,-0.0714,-0.0708,-0.0736,-0.0715,-0.0686,-0.0688,-0.0668,-0.0616,-0.0615,-0.0541,-0.052,-0.04,-0.0376,-0.0437,-0.0187,-0.0237,-0.0225,-0.0204,-0.0187,-0.0175,-0.022,-0.0383,0,0,0,0,0,-0.0729,-0.0748,-0.0731,-0.0756,-0.0749,-0.0722,-0.0717,-0.0695,-0.0655,-0.0631,-0.0559,-0.047,-0.0357,-0.0309,-0.0222,-0.014,-0.0152,-0.0037,-0.0024,-0.0013,-0.0037,0.0033,0.0048,-0.0115,-0.0115,-0.0115,0,0,-0.0749,-0.0755,-0.0767,-0.0762,-0.0748,-0.0735,-0.071,-0.0708,-0.0675,-0.0624,-0.0543,-0.0438,-0.0328,-0.0192,-0.0133,-0.016,0.0027,-0.0002,0.0006,-0.0024,0.0044,0.0059,0.0072,-0.0109,-0.011,-0.0111,0,0,-0.0791,-0.0796,-0.0817,-0.0812,-0.0807,-0.0764,-0.0765,-0.072,-0.0669,-0.0625,-0.0509,-0.0371,-0.0266,-0.0111,-0.0035,0.0082,0.0093,0.0156,0.0183,0.0253,0.0266,0.0276,0.0263,0.0272,0.0163,0.0163,0.0164,0,-0.0816,-0.0837,-0.0818,-0.0839,-0.0831,-0.0777,-0.0774,-0.0723,-0.0654,-0.0589,-0.0601,-0.0325,-0.0227,0.0004,0.0081,0.0115,0.0118,0.0112,0.0265,0.0276,0.0285,0.027,0.0279,0.0167,0.0167,0.0166,0.0166,0,-0.087,-0.0886,-0.09,-0.0888,-0.0865,-0.0864,-0.0793,-0.0746,-0.0691,-0.0601,-0.0406,-0.0267,-0.0088,0.0014,0.0073,0.0279,0.0244,0.0268,0.0209,0.0304,0.0283,0.0291,0.0173,0.0172,0.017,0.0169,0,0,-0.0924,-0.0929,-0.0939,-0.0931,-0.0894,-0.0872,-0.0817,-0.0701,-0.0643,-0.0519,-0.0396,-0.014,-0.002,0.0076,0.0238,0.0315,0.0408,0.0326,0.0328,0.0281,0.0504,0.0419,0.0418,0.0463,0.0466,0.0468,0.0452,0,-0.0961,-0.0995,-0.0977,-0.0969,-0.0959,-0.0904,-0.0841,-0.0737,-0.0637,-0.05,-0.0287,-0.0105,0.0003,0.0117,0.0231,0.0377,0.0437,0.0405,0.0445,0.0444,0.0332,0.0429,0.0425,0.0407,0.046,0.0461,0.0462,0,-0.1019,-0.1021,-0.1026,-0.0983,-0.0972,-0.0951,-0.084,-0.0775,-0.0575,-0.0494,-0.028,-0.0117,0.0133,0.0151,0.0391,0.0367,0.0437,0.0497,0.0498,0.0395,0.0375,0.033,0.042,0.0475,0.0474,0.0473,0.0472,0,-0.1047,-0.1055,-0.104,-0.1043,-0.098,-0.0964,-0.0906,-0.076,-0.0681,-0.0459,-0.0395,-0.0091,0.0046,0.0195,0.0352,0.0382,0.0505,0.0561,0.0532,0.0523,0.0511,0.0497,0.0669,0.0669,0.0669,0.0669,0.067,0,-0.1093,-0.1095,-0.1062,-0.1066,-0.1035,-0.0982,-0.0911,-0.0838,-0.0691,-0.0569,-0.0352,-0.0237,0.0058,0.0183,0.0317,0.0427,0.0482,0.0528,0.0532,0.053,0.0518,0.0573,0.0562,0.0669,0.0669,0.0669,0.0669,0,-0.114,-0.1125,-0.1112,-0.1063,-0.1052,-0.1029,-0.0956,-0.0896,-0.0777,-0.064,-0.0567,-0.0327,-0.0164,0.0039,0.0254,0.0356,0.0471,0.0483,0.0414,0.041,0.0446,0.044,0.0478,0.0475,0.0473,0.0471,0.0469,0,-0.1158,-0.1159,-0.1125,-0.1117,-0.1104,-0.1066,-0.1034,-0.0932,-0.087,-0.0704,-0.0639,-0.046,-0.0295,-0.0067,0.0138,0.0306,0.0365,0.0365,0.0447,0.0436,0.0436,0.0433,0.0429,0.045,0.0449,0.0447,0.0446,0,-0.1165,-0.116,-0.1141,-0.1143,-0.1127,-0.1097,-0.1056,-0.1028,-0.0894,-0.0818,-0.0692,-0.0569,-0.0337,-0.0106,0.0077,0.0182,0.0349,0.0338,0.0388,0.0482,0.0406,0.0406,0.0405,0.0434,0.0436,0.0436,0.0437,0.0438,-0.1152,-0.1154,-0.1133,-0.1137,-0.1127,-0.1104,-0.1075,-0.1024,-0.0946,-0.0794,-0.0739,-0.0546,-0.0348,-0.0042,0.0092,0.0229,0.0244,0.0327,0.0335,0.0343,0.0326,0.0249,0.024,0.024,0.024,0.024,0.024,0,-0.111,-0.1119,-0.1123,-0.1109,-0.1101,-0.1104,-0.1059,-0.1005,-0.0923,-0.0793,-0.0675,-0.0452,-0.0245,-0.0047,0.0162,0.0262,0.0317,0.0284,0.0364,0.0372,0.038,0.0371,0.0294,0.0294,0.0295,0.0296,0,0,-0.1084,-0.1075,-0.1086,-0.1062,-0.1066,-0.1035,-0.1008,-0.0934,-0.0835,-0.0683,-0.0546,-0.0414,-0.0204,-0.0039,0.0092,0.0212,0.027,0.0219,0.0159,0.0244,0.0252,0.0378,0.0366,0,0,0,0,0]}],[{"header":{"parameterUnit":"m.s-1","parameterCategory":2,"la1":30.2991,"la2":30.254,"lo1":-89.0895,"lo2":-89.0444,"dy":0.0017,"dx":0.0017,"nx":28,"ny":28,"refTime":"2024-02-02T09:00:00:Z","depth":"4","parameterNumber":2,"parameterNumberName":"U-component_of_CURRENTS"},"data":[0,0,0,0,0,0,0,0,0,0,0,0,0,0,0,0,0,0,0,0,0,0,0,0,0,0,0,0,0,0,0,0,0,0,0,0,0,0,0,0,0,0,0,0,0,0,0,0,0,0,0,0,0,0,0,0,0,0,-0.1085,-0.1086,0,-0.1097,-0.1097,-0.1096,-0.111,-0.1111,-0.1111,-0.1112,-0.1178,-0.1179,-0.118,0,0,0,0,0,0,0,0,0,0,0,0,0,-0.1081,-0.108,-0.1085,-0.1086,-0.1086,-0.1097,-0.1097,-0.1096,-0.111,-0.1111,-0.1111,-0.1112,-0.1178,-0.1179,-0.1181,0,0,0,0,0,0,0,0,0,0,0,0,0,-0.1082,-0.108,-0.1085,-0.1098,-0.1099,-0.1097,-0.1097,-0.1096,-0.111,-0.1111,-0.1112,-0.1113,-0.1177,-0.1179,-0.1181,-0.1172,0,0,-0.1186,-0.1187,0,0,0,0,0,0,0,0,-0.1082,-0.1082,-0.1095,-0.1097,-0.1099,-0.1107,-0.112,-0.1126,-0.1109,-0.1101,-0.1112,-0.1113,-0.1162,-0.1165,-0.1157,-0.1175,-0.1178,-0.1186,-0.1187,-0.1188,-0.1189,0,0,0,0,0,0,0,-0.1082,-0.1081,-0.1085,-0.1096,-0.1098,-0.1106,-0.1106,-0.112,-0.1123,-0.1102,-0.1104,-0.1112,-0.1163,-0.1156,-0.1159,-0.1179,-0.1186,-0.1188,-0.1189,-0.1189,-0.1257,-0.1258,0,0,0,0,0,0,-0.1088,-0.1081,-0.1085,-0.1086,-0.1098,-0.1105,-0.1106,-0.11,-0.1122,-0.1127,-0.1112,-0.1113,-0.1152,-0.1157,-0.1162,-0.1195,-0.1188,-0.119,-0.1191,-0.1256,-0.1257,-0.1258,0,0,0,0,0,0,-0.1088,-0.1088,-0.1084,-0.1088,-0.1089,-0.1105,-0.1097,-0.1099,-0.112,-0.113,-0.1135,-0.1134,-0.1153,-0.1159,-0.1189,-0.1197,-0.119,-0.1192,-0.1256,-0.1257,-0.1258,-0.1236,0,0,0,0,0,0,-0.1087,-0.1087,-0.1092,-0.1088,-0.1089,-0.1095,-0.1097,-0.1099,-0.1124,-0.1127,-0.115,-0.1156,-0.1154,-0.1186,-0.1191,-0.1199,-0.1193,-0.1255,-0.1256,-0.1257,-0.1236,-0.1236,-0.1237,0,0,0,0,0,-0.1087,-0.1085,-0.1092,-0.1093,-0.1093,-0.1096,-0.1097,-0.1108,-0.1125,-0.1131,-0.1148,-0.1156,-0.1199,-0.1188,-0.1193,-0.1202,-0.1254,-0.1256,-0.1257,-0.1236,-0.1236,-0.1237,0,0,0,0,0,0,-0.1082,-0.1087,-0.1094,-0.1093,-0.1103,-0.11,-0.1112,-0.1124,-0.1139,-0.115,-0.1162,-0.1168,-0.1193,-0.1208,-0.1196,-0.1228,-0.123,-0.1233,-0.1212,-0.1213,-0.1213,-0.1244,-0.1195,0,0,0,0,0,-0.1085,-0.1087,-0.1094,-0.1095,-0.1105,-0.1115,-0.1124,-0.113,-0.1142,-0.115,-0.1175,-0.1195,-0.1198,-0.1215,-0.1224,-0.1246,-0.1254,-0.1259,-0.1259,-0.1259,-0.129,-0.1282,-0.1284,-0.1264,-0.1264,-0.1264,0,0,-0.1086,-0.1088,-0.1091,-0.1096,-0.1106,-0.1106,-0.1122,-0.1137,-0.1142,-0.1156,-0.1187,-0.1199,-0.1205,-0.1217,-0.1232,-0.1235,-0.1267,-0.1261,-0.1261,-0.1292,-0.1284,-0.1286,-0.1287,-0.1265,-0.1265,-0.1264,0,0,-0.1073,-0.1091,-0.1084,-0.1095,-0.1113,-0.1117,-0.113,-0.1148,-0.1166,-0.1191,-0.1194,-0.1226,-0.1245,-0.125,-0.1251,-0.127,-0.1264,-0.1267,-0.1298,-0.1289,-0.1291,-0.1292,-0.1288,-0.129,-0.1272,-0.1271,-0.1271,0,-0.1073,-0.1066,-0.1085,-0.1082,-0.1096,-0.1125,-0.1125,-0.1137,-0.1166,-0.119,-0.1206,-0.1244,-0.1263,-0.1263,-0.1276,-0.1272,-0.1262,-0.1287,-0.1288,-0.129,-0.1291,-0.1288,-0.1289,-0.1271,-0.1271,-0.1271,-0.1271,0,-0.1047,-0.1055,-0.1058,-0.1061,-0.1075,-0.1087,-0.1108,-0.1141,-0.118,-0.1196,-0.1236,-0.1257,-0.1286,-0.1288,-0.1294,-0.1311,-0.1296,-0.1279,-0.1281,-0.1292,-0.1287,-0.1289,-0.1269,-0.127,-0.127,-0.127,0,0,-0.1007,-0.1035,-0.1038,-0.1049,-0.1073,-0.108,-0.1106,-0.1138,-0.1161,-0.1208,-0.1238,-0.1273,-0.1305,-0.1312,-0.1315,-0.1329,-0.1338,-0.1321,-0.132,-0.1309,-0.1313,-0.1206,-0.1198,-0.1301,-0.1302,-0.1303,-0.1298,0,-0.0984,-0.0986,-0.1003,-0.1013,-0.1021,-0.1067,-0.1082,-0.1117,-0.1162,-0.12,-0.1244,-0.1269,-0.1298,-0.1314,-0.1332,-0.1336,-0.1345,-0.1342,-0.1314,-0.1315,-0.121,-0.1198,-0.1305,-0.1299,-0.13,-0.13,-0.13,0,-0.0939,-0.0957,-0.0967,-0.1004,-0.1012,-0.1022,-0.1079,-0.1095,-0.1151,-0.1188,-0.1236,-0.1263,-0.1313,-0.1323,-0.1353,-0.134,-0.1344,-0.1346,-0.1345,-0.1264,-0.1212,-0.1292,-0.1304,-0.1304,-0.1304,-0.1304,-0.1303,0,-0.0894,-0.0925,-0.0943,-0.0956,-0.0996,-0.1024,-0.1052,-0.1103,-0.113,-0.1189,-0.1215,-0.126,-0.1288,-0.1305,-0.1342,-0.1342,-0.1353,-0.1342,-0.1247,-0.124,-0.1348,-0.1347,-0.1358,-0.1358,-0.1358,-0.1358,-0.1358,0,-0.0846,-0.0856,-0.0933,-0.094,-0.0968,-0.1005,-0.104,-0.1075,-0.1125,-0.1145,-0.1208,-0.1221,-0.1286,-0.1303,-0.1327,-0.129,-0.1337,-0.1262,-0.123,-0.1337,-0.1335,-0.1348,-0.1347,-0.1358,-0.1358,-0.1358,-0.1358,0,-0.0764,-0.0816,-0.0843,-0.0917,-0.0942,-0.0964,-0.1034,-0.1054,-0.1105,-0.1133,-0.1154,-0.1204,-0.1214,-0.1253,-0.1278,-0.1254,-0.1242,-0.1214,-0.1334,-0.1308,-0.1142,-0.114,-0.1109,-0.1105,-0.1102,-0.1099,-0.1097,0,-0.072,-0.0728,-0.0822,-0.0852,-0.0888,-0.0941,-0.0968,-0.1038,-0.1062,-0.111,-0.1108,-0.1137,-0.1163,-0.1108,-0.1157,-0.1158,-0.1152,-0.1141,-0.1153,-0.1143,-0.1116,-0.112,-0.1122,-0.1092,-0.1091,-0.109,-0.1089,0,-0.065,-0.0695,-0.0728,-0.0788,-0.0839,-0.0874,-0.0926,-0.0938,-0.1004,-0.1062,-0.1041,-0.1039,-0.1029,-0.1042,-0.1037,-0.1046,-0.1147,-0.1107,-0.1114,-0.1125,-0.1122,-0.1099,-0.1105,-0.1078,-0.1079,-0.108,-0.1081,0,-0.0612,-0.0624,-0.0687,-0.0722,-0.0773,-0.0786,-0.0829,-0.0858,-0.0888,-0.0955,-0.0945,-0.0967,-0.1015,-0.0981,-0.0984,-0.097,-0.0967,-0.0954,-0.097,-0.0983,-0.0943,-0.092,-0.0788,0,0,0,0,0,-0.0584,-0.0588,-0.0617,-0.0655,-0.0689,-0.0714,-0.0784,-0.0831,-0.091,-0.087,-0.0907,-0.0896,-0.0876,-0.0892,-0.0853,-0.0924,-0.097,-0.0874,-0.0964,-0.1015,-0.1028,-0.0992,0,0,0,0,0,0,-0.0568,-0.0597,-0.0598,-0.0584,-0.058,-0.0611,-0.065,-0.0703,-0.0698,-0.0778,-0.0774,-0.083,-0.0828,-0.0873,-0.0824,-0.0831,-0.0869,-0.0901,-0.0898,-0.1008,-0.102,-0.103,-0.0997,0,0,0,0,0]},{"header":{"parameterUnit":"m.s-1","parameterCategory":2,"la1":30.2991,"la2":30.254,"lo1":-89.0895,"lo2":-89.0444,"dy":0.0017,"dx":0.0017,"nx":28,"ny":28,"refTime":"2024-02-02T09:00:00:Z","depth":"4","parameterNumber":3,"parameterNumberName":"V-component_of_CURRENTS"},"data":[0,0,0,0,0,0,0,0,0,0,0,0,0,0,0,0,0,0,0,0,0,0,0,0,0,0,0,0,0,0,0,0,0,0,0,0,0,0,0,0,0,0,0,0,0,0,0,0,0,0,0,0,0,0,0,0,0,0,-0.0585,-0.0585,0,-0.0606,-0.0607,-0.0607,-0.0597,-0.0596,-0.0595,-0.0595,-0.0589,-0.0589,-0.059,0,0,0,0,0,0,0,0,0,0,0,0,0,-0.0525,-0.0527,-0.0585,-0.0585,-0.0585,-0.0606,-0.0607,-0.0607,-0.0597,-0.0596,-0.0595,-0.0594,-0.0589,-0.0589,-0.059,0,0,0,0,0,0,0,0,0,0,0,0,0,-0.0551,-0.0527,-0.0585,-0.0581,-0.0581,-0.0606,-0.0607,-0.0607,-0.0597,-0.0596,-0.0595,-0.0594,-0.0588,-0.0589,-0.059,-0.0616,0,0,-0.0592,-0.0593,0,0,0,0,0,0,0,0,-0.055,-0.0554,-0.0582,-0.0581,-0.0581,-0.0596,-0.0583,-0.0608,-0.0597,-0.0593,-0.0595,-0.0593,-0.0588,-0.0589,-0.0599,-0.0616,-0.0616,-0.0592,-0.0593,-0.0593,-0.0593,0,0,0,0,0,0,0,-0.0548,-0.0552,-0.0595,-0.0582,-0.0582,-0.0575,-0.0578,-0.0588,-0.0597,-0.0593,-0.0592,-0.0592,-0.0588,-0.0598,-0.0598,-0.0616,-0.0592,-0.0593,-0.0594,-0.0594,-0.0661,-0.0662,0,0,0,0,0,0,-0.0544,-0.0551,-0.0595,-0.0596,-0.056,-0.0577,-0.058,-0.0594,-0.0598,-0.0597,-0.0593,-0.0591,-0.0597,-0.0597,-0.0598,-0.065,-0.0593,-0.0594,-0.0594,-0.0659,-0.0661,-0.0662,0,0,0,0,0,0,-0.0543,-0.0548,-0.0594,-0.0571,-0.0576,-0.0579,-0.0595,-0.0595,-0.0607,-0.0597,-0.0596,-0.0604,-0.0596,-0.0597,-0.0619,-0.0649,-0.0594,-0.0595,-0.0658,-0.066,-0.0662,-0.0741,0,0,0,0,0,0,-0.0541,-0.0548,-0.0563,-0.0572,-0.0577,-0.0619,-0.0596,-0.0596,-0.0607,-0.0606,-0.0607,-0.0605,-0.0595,-0.0618,-0.062,-0.0649,-0.0596,-0.0656,-0.0659,-0.0661,-0.0737,-0.0746,-0.0753,0,0,0,0,0,-0.0539,-0.0567,-0.0564,-0.0569,-0.0597,-0.062,-0.0624,-0.0622,-0.0609,-0.0626,-0.0626,-0.0605,-0.0634,-0.062,-0.0622,-0.0652,-0.0655,-0.0658,-0.0661,-0.0734,-0.0744,-0.0753,0,0,0,0,0,0,-0.0556,-0.0569,-0.0566,-0.0598,-0.061,-0.0618,-0.0637,-0.0629,-0.0644,-0.0644,-0.0627,-0.0627,-0.0658,-0.0644,-0.0628,-0.0677,-0.064,-0.0643,-0.0694,-0.0704,-0.0712,-0.0678,-0.0596,0,0,0,0,0,-0.0565,-0.0589,-0.0596,-0.0625,-0.0633,-0.0636,-0.0646,-0.0645,-0.0654,-0.0659,-0.0663,-0.0664,-0.0673,-0.0678,-0.0688,-0.0717,-0.0665,-0.0735,-0.0743,-0.075,-0.0724,-0.068,-0.0681,-0.0672,-0.0672,-0.0672,0,0,-0.0578,-0.0591,-0.0603,-0.063,-0.0641,-0.0661,-0.0641,-0.0666,-0.0676,-0.0657,-0.0689,-0.0698,-0.0688,-0.0723,-0.0735,-0.0714,-0.0731,-0.0754,-0.076,-0.0729,-0.0683,-0.0683,-0.0684,-0.0674,-0.0674,-0.0673,0,0,-0.0616,-0.0631,-0.0659,-0.0674,-0.0693,-0.0693,-0.07,-0.0718,-0.0721,-0.0755,-0.074,-0.0758,-0.0787,-0.0778,-0.0776,-0.0831,-0.0778,-0.0848,-0.0861,-0.082,-0.082,-0.0818,-0.0771,-0.0764,-0.0849,-0.085,-0.085,0,-0.0629,-0.0661,-0.0672,-0.0702,-0.0709,-0.0707,-0.0728,-0.0739,-0.0762,-0.0762,-0.0774,-0.0799,-0.0804,-0.0809,-0.0837,-0.0847,-0.0811,-0.0828,-0.0829,-0.0826,-0.0823,-0.0774,-0.0766,-0.0854,-0.0853,-0.0853,-0.0852,0,-0.0678,-0.0704,-0.0727,-0.0755,-0.077,-0.0792,-0.0797,-0.0815,-0.0822,-0.0825,-0.0847,-0.086,-0.086,-0.0885,-0.0882,-0.0876,-0.0853,-0.0847,-0.08,-0.0829,-0.0776,-0.0766,-0.086,-0.0858,-0.0857,-0.0856,0,0,-0.0702,-0.0746,-0.0756,-0.0762,-0.0793,-0.0804,-0.0828,-0.0834,-0.0829,-0.087,-0.0866,-0.0905,-0.0902,-0.0896,-0.0899,-0.0877,-0.0852,-0.0861,-0.0857,-0.0806,-0.0755,-0.0709,-0.0693,-0.085,-0.0849,-0.0848,-0.0731,0,-0.0729,-0.0776,-0.0795,-0.0827,-0.0839,-0.0844,-0.0858,-0.0866,-0.0872,-0.0878,-0.0882,-0.0892,-0.0907,-0.0915,-0.0897,-0.086,-0.0827,-0.0883,-0.0739,-0.0734,-0.0683,-0.0681,-0.0843,-0.0723,-0.0721,-0.0719,-0.0718,0,-0.0764,-0.0782,-0.0818,-0.083,-0.0837,-0.0859,-0.0854,-0.0866,-0.0868,-0.0876,-0.0882,-0.0882,-0.0868,-0.0878,-0.0802,-0.0839,-0.0795,-0.0765,-0.076,-0.067,-0.0669,-0.0684,-0.0699,-0.0701,-0.0702,-0.0703,-0.0705,0,-0.0748,-0.0794,-0.0813,-0.0824,-0.0846,-0.0857,-0.0864,-0.0868,-0.0868,-0.0866,-0.0872,-0.085,-0.0841,-0.0787,-0.074,-0.0766,-0.064,-0.0664,-0.0572,-0.0568,-0.0609,-0.0611,-0.0585,-0.0585,-0.0585,-0.0586,-0.0586,0,-0.0752,-0.0771,-0.0809,-0.0817,-0.0827,-0.0847,-0.085,-0.0855,-0.0861,-0.0859,-0.0865,-0.085,-0.0819,-0.0758,-0.0712,-0.06,-0.0608,-0.0549,-0.0527,-0.065,-0.0658,-0.0602,-0.0606,-0.0581,-0.0582,-0.0583,-0.0584,0,-0.0736,-0.0765,-0.0784,-0.0811,-0.0822,-0.0828,-0.0851,-0.085,-0.0856,-0.0852,-0.0855,-0.0837,-0.0751,-0.0694,-0.0593,-0.0554,-0.0459,-0.0416,-0.0532,-0.0523,-0.0422,-0.0432,-0.0296,-0.0293,-0.0291,-0.0289,-0.0287,0,-0.0728,-0.074,-0.0778,-0.0792,-0.0811,-0.0825,-0.0836,-0.0849,-0.0852,-0.0836,-0.0835,-0.0765,-0.0739,-0.0544,-0.0497,-0.0365,-0.0361,-0.0312,-0.0384,-0.0396,-0.0389,-0.0402,-0.0414,-0.0284,-0.0283,-0.0282,-0.0282,0,-0.0701,-0.0728,-0.0741,-0.0778,-0.08,-0.0813,-0.0832,-0.083,-0.0837,-0.0847,-0.0783,-0.0709,-0.0603,-0.0504,-0.0394,-0.0315,-0.0347,-0.0287,-0.0293,-0.036,-0.038,-0.0378,-0.0392,-0.0274,-0.0275,-0.0276,-0.0276,0,-0.0681,-0.0689,-0.0723,-0.0751,-0.0784,-0.08,-0.0805,-0.0798,-0.0791,-0.0781,-0.075,-0.066,-0.0618,-0.0474,-0.0377,-0.0285,-0.0282,-0.0277,-0.0283,-0.0292,-0.0339,-0.0366,-0.0214,0,0,0,0,0,-0.065,-0.0666,-0.0695,-0.0725,-0.0766,-0.0786,-0.0807,-0.0812,-0.0815,-0.076,-0.0754,-0.0651,-0.0502,-0.0447,-0.034,-0.0352,-0.0279,-0.0226,-0.028,-0.0229,-0.0238,-0.0292,0,0,0,0,0,0,-0.063,-0.0657,-0.0679,-0.0707,-0.073,-0.0763,-0.0775,-0.0779,-0.0743,-0.0738,-0.065,-0.0626,-0.0477,-0.0552,-0.0336,-0.0312,-0.0333,-0.0165,-0.0163,-0.0223,-0.0232,-0.0239,-0.0298,0,0,0,0,0]}]]